Temp
-1 -1 -1 -1 -1 -1 0 -1 -3 1 1 -1 -3 -3 -2 0 -0 0 -0 -1 -1 -1 -2 -4 -2 -1 -3 -1 -2 -2 -2 -4 -3 -1 -0 -1 -0 -0 -2 1 -0 -0 1 0
-1 -1 -1 -1 -1 -1 -1 -3 -2 0 0 -3 -3 -3 -1 -1 -1 -1 -1 -1 -1 -1 -2 -2 -3 -2 -2 -1 -2 -4 -3 -4 -5 0 -1 -1 -1 -1 -1 -2 -2 -0 2 -0
-1 -0 -1 -1 -1 -1 -0 -3 -3 -1 -1 -2 -3 -3 -2 -1 -0 -2 -1 -2 -2 -2 -2 -2 -3 -2 -1 -1 -1 0 -3 -7 -4 -4 -2 -1 -2 -2 -2 -3 -2 -2 -3 -2
-1 -1 -1 -1 -1 -1 -1 -2 -3 -3 -4 -2 -4 -4 -2 -2 -2 -2 -2 -2 -2 -3 -2 -4 -3 -2 -3 -2 -4 -5 -6 -6 -4 -3 -3 -2 -2 -1 -2 -2 -3 -3 -2 -3
-1 -1 -1 -1 -1 -1 -2 -2 -3 -4 -3 -3 -5 -3 -3 -2 -2 -3 -3 -3 -3 -4 -3 -3 -3 -4 -5 -5 -7 -7 -7 -6 -4 -6 -3 -2 -3 -2 -2 -2 -1 -4 -2 -2
0 -0 -1 -2 -1 -1 -2 -3 -3 -4 -3 -5 -5 -4 -4 -3 -4 -3 -3 -3 -4 -4 -4 -4 -4 -4 -4 -5 -5 -6 -8 -8 -9 -8 -4 -4 -5 -5 -2 -2 -2 -2 -3 -2
1 1 -1 -1 -1 -2 -2 -3 -3 -3 -6 -8 -3 -6 -4 -4 -4 -4 -4 -4 -7 -4 -4 -3 -4 -4 -5 -5 -4 -4 -9 -6 -7 -9 -5 -8 -3 -3 -3 -3 -4 -4 -2 -3
1 0 -1 -1 -1 -1 -2 -3 -3 -3 -7 -5 -5 -5 -6 -5 -4 -5 -5 -4 -4 -4 -4 -8 -8 -6 -3 -5 -4 -5 -4 -4 -4 -6 -7 -4 -3 -4 -4 -4 -4 -6 -5 -7
1 1 -0 -1 -2 -2 -2 -3 -3 -3 -4 -4 -5 -5 -5 -6 -9 -8 -4 -3 -4 -3 -8 -8 -8 -6 -4 -4 -4 -4 -4 -5 -5 -6 -7 -4 -3 -4 -4 -5 -4 -5 -6 -8
1 0 -0 -1 -2 -2 -3 -3 -4 -4 -4 -4 -5 -5 -5 -5 -5 -9 -6 -5 -5 -4 -9 -7 -7 -6 -6 -6 -5 -4 -4 -5 -5 -4 -5 -4 -4 -5 -4 -4 -4 -5 -5 -6
1 0 -0 -0 -1 -2 -3 -3 -5 -4 -4 -4 -5 -5 -6 -6 -6 -6 -5 -7 -6 -8 -8 -9 -9 -9 -8 -8 -6 -4 -5 -5 -6 -7 -7 -5 -5 -4 -5 -6 -6 -5 -5 -5
0 0 -0 -0 -1 -2 -2 -3 -3 -4 -5 -5 -5 -5 -5 -6 -6 -7 -6 -6 -5 -5 -6 -11 -11 -9 -12 -9 -8 -5 -5 -5 -5 -7 -4 -5 -6 -6 -7 -6 -6 -6 -5 -4
0 -0 -0 -1 -1 -2 -2 -3 -3 -4 -5 -5 -5 -4 -5 -5 -6 -7 -6 -5 -6 -6 -6 -9 -11 -8 -9 -8 -7 -7 -6 -6 -7 -7 -6 -6 -7 -7 -7 -7 -6 -6 -5 -5
0 -0 -0 -1 -2 -2 -3 -4 -4 -3 -6 -8 -4 -4 -5 -5 -5 -6 -7 -7 -7 -7 -6 -7 -11 -8 -6 -6 -5 -6 -7 -7 -8 -9 -7 -7 -8 -8 -8 -7 -7 -7 -6 -6
-0 -0 -1 -2 -2 -2 -4 -5 -5 -6 -5 -8 -5 -4 -5 -5 -5 -6 -6 -7 -7 -7 -6 -8 -8 -6 -6 -7 -8 -8 -8 -9 -9 -9 -9 -9 -8 -8 -8 -8 -8 -8 -7 -7
-1 -1 -1 -2 -3 -3 -3 -4 -4 -4 -6 -6 -11 -5 -5 -4 -5 -5 -6 -6 -6 -7 -7 -7 -6 -6 -7 -9 -8 -8 -8 -8 -8 -8 -8 -8 -8 -9 -9 -9 -9 -9 -9 -9
-1 -2 -2 -3 -2 -3 -2 -3 -3 -4 -6 -6 -8 -8 -5 -5 -5 -5 -6 -6 -6 -6 -7 -7 -8 -7 -8 -12 -10 -8 -9 -9 -9 -9 -9 -9 -9 -9 -9 -9 -10 -10 -9 -9
-1 -1 -3 -4 -3 -3 -3 -3 -3 -4 -5 -5 -14 -10 -5 -5 -6 -6 -6 -6 -6 -7 -8 -8 -10 -8 -9 -12 -8 -9 -9 -9 -9 -9 -9 -9 -9 -9 -10 -10 -10 -10 -9 -9
-1 -1 -2 -3 -3 -3 -3 -3 -3 -4 -4 -4 -9 -11 -10 -6 -7 -8 -7 -7 -12 -8 -14 -11 -11 -12 -11 -9 -8 -9 -10 -9 -9 -9 -9 -9 -9 -9 -9 -9 -9 -9 -9 -9
-1 -1 -2 -3 -2 -3 -3 -3 -3 -4 -4 -5 -9 -9 -11 -8 -9 -9 -9 -9 -15 -13 -12 -10 -14 -11 -7 -6 -7 -8 -8 -9 -9 -9 -8 -9 -9 -9 -9 -9 -9 -9 -9 -9
-2 -2 -2 -3 -3 -3 -3 -3 -6 -6 -8 -6 -8 -9 -11 -9 -12 -15 -11 -15 -16 -14 -11 -13 -13 -12 -9 -6 -7 -8 -8 -8 -8 -8 -8 -8 -9 -9 -9 -9 -9 -9 -9 -9
-3 -4 -4 -4 -3 -3 -8 -16 -11 -14 -9 -7 -7 -8 -9 -9 -10 -11 -12 -15 -15 -12 -11 -14 -12 -10 -6 -6 -7 -7 -8 -8 -8 -8 -8 -8 -8 -8 -8 -9 -9 -9 -9 -9
-3 -4 -4 -4 -5 -8 -9 -8 -10 -10 -7 -7 -8 -9 -9 -9 -10 -13 -17 -14 -13 -12 -16 -11 -11 -7 -6 -6 -7 -7 -8 -8 -9 -9 -9 -9 -9 -10 -10 -9 -9 -9 -9 -9
-3 -4 -8 -9 -11 -12 -10 -10 -10 -4 -5 -6 -8 -9 -9 -11 -13 -17 -15 -15 -16 -15 -14 -10 -12 -6 -6 -7 -7 -8 -8 -9 -9 -10 -10 -10 -10 -10 -11 -11 -11 -10 -9 -10
-3 -5 -8 -11 -6 -5 -5 -5 -5 -5 -6 -8 -9 -11 -12 -17 -17 -18 -17 -15 -14 -12 -9 -10 -6 -6 -7 -7 -8 -9 -9 -10 -10 -10 -11 -11 -12 -12 -11 -11 -11 -11 -10 -10
-4 -5 -7 -8 -9 -7 -6 -5 -5 -6 -7 -8 -9 -16 -17 -17 -19 -15 -15 -15 -12 -9 -13 -5 -6 -7 -7 -8 -9 -9 -10 -11 -11 -12 -12 -12 -13 -13 -13 -12 -12 -12 -11 -10
-5 -6 -5 -6 -5 -6 -4 -4 -5 -6 -8 -14 -13 -14 -11 -18 -18 -16 -15 -13 -11 -5 -5 -6 -6 -7 -7 -8 -9 -10 -11 -11 -12 -12 -12 -12 -13 -13 -13 -13 -13 -13 -12 -12
Height
1512 1507 1501 1495 1488 1480 1473 1468 1466 1460 1453 1454 1457 1458 1454 1447 1442 1440 1438 1437 1436 1432 1431 1433 1427 1425 1428 1423 1421 1421 1418 1423 1424 1413 1411 1411 1409 1409 1414 1410 1420 1421 1416 1423
1513 1508 1502 1496 1490 1483 1476 1472 1469 1464 1460 1465 1462 1458 1453 1449 1445 1443 1441 1440 1437 1435 1433 1433 1429 1426 1425 1424 1424 1428 1424 1428 1436 1411 1414 1413 1417 1416 1416 1419 1419 1421 1412 1425
1512 1507 1502 1496 1491 1485 1480 1476 1474 1468 1466 1467 1468 1462 1455 1451 1449 1447 1445 1442 1438 1437 1433 1429 1430 1426 1425 1424 1424 1424 1424 1437 1434 1440 1429 1424 1425 1423 1423 1426 1424 1426 1432 1432
1512 1508 1502 1497 1492 1487 1483 1481 1481 1480 1476 1469 1470 1467 1461 1457 1455 1450 1446 1442 1442 1439 1432 1433 1429 1428 1429 1426 1426 1426 1430 1440 1434 1428 1427 1424 1424 1424 1426 1427 1431 1431 1427 1431
1511 1507 1502 1497 1492 1488 1486 1486 1486 1482 1478 1474 1472 1468 1465 1460 1457 1456 1449 1448 1443 1438 1433 1431 1432 1432 1434 1435 1431 1433 1433 1442 1434 1440 1427 1425 1425 1422 1425 1426 1426 1433 1427 1431
1510 1506 1502 1498 1494 1490 1489 1487 1486 1484 1479 1476 1475 1473 1469 1463 1460 1455 1452 1450 1446 1442 1440 1437 1434 1433 1433 1434 1435 1437 1440 1443 1450 1453 1430 1430 1439 1431 1423 1423 1423 1424 1431 1427
1510 1505 1501 1498 1495 1492 1490 1488 1485 1484 1483 1480 1476 1473 1470 1465 1461 1459 1453 1450 1449 1444 1438 1433 1432 1432 1433 1434 1433 1434 1443 1438 1442 1454 1437 1459 1429 1423 1421 1424 1426 1424 1423 1428
1510 1506 1502 1498 1496 1494 1490 1488 1486 1484 1484 1481 1476 1474 1470 1462 1459 1457 1455 1452 1449 1444 1438 1440 1445 1440 1433 1435 1433 1434 1434 1434 1433 1445 1448 1431 1427 1429 1429 1428 1429 1429 1429 1433
1510 1506 1502 1499 1497 1493 1489 1488 1486 1484 1483 1482 1480 1475 1473 1470 1467 1459 1454 1452 1448 1446 1445 1449 1459 1452 1442 1438 1435 1432 1431 1432 1439 1443 1452 1432 1429 1429 1429 1428 1433 1432 1432 1436
1510 1506 1503 1499 1496 1493 1490 1487 1485 1484 1483 1482 1480 1479 1476 1474 1470 1469 1461 1457 1451 1448 1453 1456 1456 1453 1449 1449 1442 1436 1435 1438 1439 1433 1441 1436 1433 1430 1427 1434 1443 1435 1435 1437
1509 1507 1503 1499 1495 1493 1490 1488 1485 1484 1483 1481 1481 1479 1478 1475 1474 1472 1465 1461 1457 1455 1459 1464 1464 1463 1458 1456 1448 1443 1443 1442 1444 1450 1453 1442 1436 1429 1434 1442 1439 1438 1439 1440
1509 1506 1502 1498 1495 1493 1490 1487 1485 1482 1482 1481 1480 1479 1477 1476 1474 1473 1468 1467 1463 1460 1460 1465 1465 1462 1465 1462 1462 1444 1447 1447 1446 1449 1444 1444 1443 1442 1442 1441 1441 1442 1442 1443
1507 1504 1500 1497 1495 1492 1489 1487 1485 1482 1481 1480 1479 1478 1477 1475 1473 1472 1472 1466 1465 1463 1463 1461 1463 1462 1459 1462 1455 1452 1448 1446 1448 1449 1447 1446 1446 1445 1444 1444 1444 1444 1444 1444
1506 1503 1500 1498 1494 1491 1489 1486 1484 1482 1481 1481 1478 1477 1476 1475 1473 1471 1469 1467 1465 1463 1462 1461 1462 1461 1455 1453 1451 1452 1455 1451 1453 1453 1449 1448 1448 1447 1447 1446 1446 1445 1445 1445
1505 1503 1500 1497 1494 1491 1488 1486 1484 1482 1484 1482 1477 1476 1475 1474 1472 1470 1468 1465 1463 1462 1461 1460 1460 1456 1456 1454 1454 1458 1457 1457 1459 1457 1453 1453 1450 1449 1448 1447 1446 1445 1445 1445
1505 1503 1500 1497 1494 1491 1488 1487 1486 1483 1481 1480 1480 1476 1474 1473 1471 1469 1467 1465 1463 1462 1461 1460 1459 1458 1458 1460 1459 1459 1457 1456 1455 1454 1453 1451 1450 1449 1448 1446 1445 1444 1442 1442
1504 1501 1498 1496 1492 1490 1489 1489 1487 1484 1481 1480 1478 1474 1473 1471 1469 1468 1466 1465 1463 1462 1461 1461 1460 1458 1458 1461 1464 1457 1455 1454 1453 1453 1452 1450 1449 1447 1446 1445 1444 1443 1443 1442
1501 1497 1494 1492 1491 1490 1487 1486 1484 1483 1482 1480 1481 1477 1473 1472 1470 1468 1466 1465 1463 1463 1463 1463 1462 1460 1459 1466 1457 1455 1453 1451 1451 1451 1451 1450 1448 1446 1445 1444 1444 1443 1443 1443
1497 1493 1490 1488 1488 1487 1487 1484 1482 1482 1485 1480 1480 1488 1485 1473 1472 1470 1468 1466 1467 1465 1465 1464 1465 1463 1466 1457 1455 1454 1452 1451 1449 1449 1448 1448 1447 1445 1444 1443 1443 1443 1443 1443
1494 1490 1488 1487 1487 1485 1485 1482 1482 1481 1482 1480 1480 1482 1482 1479 1475 1472 1471 1469 1473 1474 1469 1465 1466 1461 1454 1454 1454 1453 1452 1450 1449 1448 1447 1446 1445 1444 1444 1443 1442 1442 1442 1442
1494 1490 1489 1487 1486 1484 1483 1482 1482 1482 1483 1481 1481 1481 1481 1479 1480 1479 1477 1477 1476 1483 1472 1472 1472 1465 1451 1452 1452 1452 1452 1451 1449 1448 1447 1446 1444 1443 1442 1442 1441 1440 1440 1440
1495 1492 1487 1485 1484 1483 1484 1489 1486 1485 1486 1481 1480 1480 1480 1479 1478 1477 1478 1481 1479 1480 1472 1476 1474 1452 1449 1450 1450 1451 1450 1450 1449 1448 1446 1445 1443 1442 1440 1439 1439 1438 1437 1437
1490 1488 1486 1485 1485 1489 1490 1494 1489 1487 1478 1479 1479 1480 1479 1479 1478 1478 1480 1484 1482 1474 1483 1471 1457 1449 1448 1449 1449 1449 1448 1447 1446 1445 1443 1442 1440 1439 1437 1436 1435 1434 1433 1433
1493 1489 1489 1487 1490 1485 1478 1478 1476 1475 1475 1477 1478 1478 1479 1478 1479 1481 1484 1482 1482 1487 1485 1464 1449 1445 1447 1447 1447 1446 1445 1444 1442 1441 1439 1437 1435 1433 1433 1431 1430 1429 1429 1429
1493 1490 1490 1484 1473 1472 1471 1471 1472 1473 1473 1475 1477 1478 1479 1480 1482 1483 1484 1485 1485 1472 1459 1449 1443 1444 1444 1444 1443 1442 1440 1439 1437 1436 1434 1432 1430 1428 1426 1426 1425 1424 1423 1423
1489 1484 1477 1473 1474 1469 1469 1469 1470 1471 1471 1473 1477 1479 1483 1484 1484 1484 1482 1486 1472 1451 1444 1440 1441 1442 1441 1440 1439 1437 1435 1433 1432 1430 1428 1426 1424 1421 1419 1418 1417 1416 1416 1416
1480 1471 1468 1469 1467 1467 1466 1466 1466 1469 1470 1473 1475 1482 1475 1482 1487 1481 1470 1461 1442 1436 1437 1438 1438 1438 1437 1436 1435 1433 1431 1429 1427 1425 1423 1421 1419 1417 1415 1413 1413 1411 1410 1410
Wind_Speed
27 28 31 34 34 37 36 18 4 25 27 9 4 4 9 10 5 14 4 1 3 3 4 3 3 3 2 8 6 4 4 3 3 1 3 4 2 2 3 3 2 1 0 1
26 28 30 31 31 33 33 13 7 14 20 4 7 7 5 4 8 6 6 4 2 2 4 3 2 1 2 5 6 1 4 2 3 0 1 5 5 8 4 2 3 0 1 1
27 28 28 27 26 29 23 8 5 7 7 7 3 10 4 8 12 4 6 4 4 5 4 3 3 2 2 3 3 10 3 2 3 3 0 2 3 5 8 3 2 3 1 2
25 26 26 24 24 25 18 9 3 3 5 4 8 6 5 6 10 5 9 4 10 11 4 3 3 2 5 4 9 4 4 1 2 4 3 2 3 4 3 3 2 3 3 4
23 25 24 22 22 23 12 6 6 7 9 10 6 6 5 13 13 3 6 6 15 8 6 4 2 1 1 2 5 3 4 2 2 3 3 3 3 5 4 4 1 3 5 3
23 22 20 19 20 20 9 13 11 4 7 6 4 6 8 9 14 5 4 9 6 6 11 19 13 7 4 1 2 1 2 2 2 4 4 4 3 3 4 3 3 6 3 4
22 21 18 18 16 16 14 11 9 3 4 2 4 5 6 12 10 4 8 10 3 8 25 14 2 2 3 1 3 2 2 1 2 3 3 3 3 5 2 6 3 4 3 4
20 20 17 16 15 15 14 11 6 3 3 4 5 14 6 15 17 4 3 7 12 19 11 5 6 4 2 2 0 2 4 2 1 1 1 2 2 4 5 4 3 4 2 5
20 19 18 17 15 16 14 9 7 4 5 3 7 5 7 5 4 7 4 17 13 12 3 4 3 3 3 4 7 2 2 3 2 2 2 2 3 2 7 2 2 4 4 5
19 19 19 17 16 14 14 8 8 4 3 4 8 4 5 9 7 3 6 15 8 11 3 3 3 3 1 4 6 4 3 2 2 2 1 2 4 13 10 4 3 4 8 9
17 17 18 18 16 11 11 9 12 5 3 3 3 5 6 7 6 4 11 8 5 4 5 3 2 2 2 2 3 4 3 2 2 2 3 2 12 6 5 2 3 4 8 9
16 17 18 17 14 13 12 9 11 7 2 2 2 4 6 8 9 5 8 4 5 4 1 2 1 2 2 0 3 4 3 1 1 2 1 2 8 8 6 9 7 8 4 3
16 17 16 15 13 14 13 9 11 10 3 3 4 3 5 10 8 6 4 3 7 6 10 2 1 2 2 2 2 2 4 7 2 2 4 3 8 7 8 7 5 5 4 2
15 15 15 12 14 15 14 11 11 11 3 1 2 3 3 10 9 9 7 12 12 11 6 1 1 1 1 1 1 2 3 5 4 2 3 3 6 7 6 5 4 3 3 1
14 13 13 13 14 15 15 7 9 14 6 3 5 7 2 9 11 8 9 9 5 3 2 0 1 2 3 2 2 2 5 1 1 2 4 2 4 6 6 6 6 6 6 6
13 14 13 12 12 14 12 4 4 15 6 2 3 3 2 9 8 6 6 9 6 3 2 2 3 3 5 2 1 2 7 5 5 3 9 8 7 6 6 6 7 9 10 6
14 18 19 17 13 10 4 3 9 14 5 2 5 6 2 11 8 7 6 6 4 4 2 3 4 3 6 2 0 6 9 7 5 5 7 4 4 5 7 6 7 5 3 2
19 19 17 18 13 8 5 8 9 9 4 2 2 4 4 11 5 5 8 5 3 6 4 2 3 6 3 2 4 10 7 4 3 2 3 5 5 5 5 5 5 4 3 2
20 18 18 10 2 4 7 13 6 5 3 1 3 2 3 10 5 5 4 4 2 4 2 1 3 2 0 4 7 9 7 3 4 3 4 6 6 6 5 4 5 5 4 4
17 13 4 3 2 13 10 2 1 1 2 1 2 2 2 6 5 3 9 4 1 2 2 7 2 3 4 4 3 5 7 6 6 7 3 7 6 7 7 6 6 6 6 7
13 7 3 7 14 5 2 1 3 3 2 1 1 2 2 3 1 2 5 2 1 2 3 2 3 3 4 5 1 2 4 6 7 8 9 9 10 10 10 9 9 9 9 9
19 16 15 7 3 1 4 2 3 2 3 2 1 1 2 2 1 0 3 1 3 3 6 3 3 3 5 6 3 4 4 5 6 8 10 12 12 12 12 12 11 11 12 12
13 3 2 2 2 4 4 2 4 2 4 4 1 2 1 1 1 3 3 3 3 5 3 3 4 2 5 6 6 7 8 9 10 13 15 16 16 16 16 15 13 13 14 13
4 3 5 3 4 4 4 4 4 3 3 1 2 1 1 1 2 1 3 2 2 3 2 4 3 6 5 5 8 11 12 14 17 19 20 20 18 17 16 17 16 16 15 13
4 3 4 5 7 7 5 8 4 4 4 0 0 2 0 2 3 2 2 4 3 5 4 3 5 6 5 8 11 12 15 17 19 21 20 18 18 19 20 18 19 19 18 16
5 7 3 7 3 4 6 10 10 8 6 3 2 3 3 3 3 2 6 5 6 4 3 5 6 6 9 12 15 17 18 17 18 19 21 21 20 19 19 17 16 18 20 20
5 8 13 13 12 10 7 4 4 11 7 2 4 2 7 3 2 3 4 5 4 5 8 6 6 9 13 16 17 16 16 18 17 15 15 15 14 14 14 13 10 12 14 17
Wind_Direction
1 1 1 355 355 353 359 356 357 357 13 39 8 1 316 319 322 355 354 348 302 308 306 329 338 18 198 348 341 11 345 38 342 355 10 9 46 43 131 146 226 44 18 340
1 359 356 353 355 359 353 349 315 7 23 29 356 315 289 304 341 345 351 315 310 314 288 326 283 21 309 16 26 31 310 15 1 46 155 24 17 5 13 47 106 40 178 234
1 355 351 351 356 359 360 6 349 345 18 15 2 337 325 344 335 310 336 278 326 329 303 231 295 307 27 1 16 353 39 52 132 177 271 292 349 5 350 35 88 160 171 141
355 351 349 354 355 0 12 18 353 355 319 350 345 320 304 337 1 337 335 326 342 315 278 281 234 49 346 5 359 38 86 129 39 303 299 259 237 274 318 351 220 109 209 120
354 351 353 357 356 359 25 18 353 324 299 307 342 340 337 340 339 284 318 337 332 337 350 351 2 42 179 260 341 45 4 300 69 303 290 313 283 248 207 234 204 54 104 83
354 351 354 1 355 357 13 354 348 324 304 338 2 358 332 324 333 305 327 342 325 352 349 328 315 308 279 224 146 37 18 116 73 279 300 332 25 275 225 192 179 147 133 209
356 357 358 358 360 355 355 352 335 320 289 38 330 325 317 332 321 271 316 346 35 320 326 323 290 41 70 57 284 214 149 189 115 243 2 28 278 350 133 114 41 2 84 83
355 359 358 355 358 348 351 357 3 323 290 303 339 340 321 331 346 330 305 328 327 332 334 21 13 351 29 17 280 265 215 211 138 132 209 283 156 1 17 7 13 331 115 103
351 354 356 358 358 347 350 349 3 319 310 16 3 309 347 345 321 336 322 347 339 352 52 50 42 11 313 335 346 309 342 121 109 43 95 355 34 285 326 266 35 345 134 145
349 353 356 355 353 348 350 356 354 318 312 2 12 353 335 338 332 289 316 341 334 7 17 43 27 326 310 5 345 343 6 13 47 32 31 352 316 313 320 78 259 23 138 144
347 352 353 352 354 357 344 344 344 333 290 312 351 350 342 345 354 339 318 348 356 352 33 58 298 42 281 6 309 344 13 348 23 49 49 18 343 338 75 268 3 69 133 161
349 351 351 351 357 1 356 337 346 349 238 270 282 311 351 350 346 313 319 290 295 327 358 3 22 338 7 212 334 349 27 13 295 116 41 30 31 62 43 37 65 51 74 133
350 349 346 353 360 360 6 359 359 360 314 256 255 295 349 356 352 343 298 325 342 326 339 208 177 286 115 351 288 316 354 11 57 55 22 15 18 42 48 45 53 52 54 62
346 342 345 356 354 354 354 347 359 4 345 274 228 291 332 356 344 343 324 284 295 294 306 326 116 228 209 262 325 49 323 344 345 302 345 350 51 27 23 23 15 10 16 45
345 349 350 348 353 348 342 343 11 12 6 284 295 306 258 345 345 339 336 336 318 308 300 185 261 308 353 9 62 29 356 317 57 257 332 273 311 339 334 330 323 312 293 267
342 345 343 338 337 340 334 320 330 356 359 301 337 311 334 345 346 346 349 10 8 340 346 334 329 7 346 73 104 86 357 319 301 289 318 305 306 310 312 302 307 307 297 270
333 327 328 333 329 332 346 337 323 349 348 278 317 334 331 352 351 345 354 358 360 7 13 12 329 333 4 71 152 331 333 314 289 296 320 298 312 300 307 297 308 296 307 243
332 326 311 309 313 310 295 321 323 334 325 347 67 289 353 360 342 343 347 334 350 22 351 351 16 318 18 32 250 332 336 356 128 283 306 315 324 323 314 305 299 285 270 237
328 321 315 304 249 311 306 309 303 317 336 352 74 111 289 342 2 337 314 337 9 331 51 341 360 309 265 232 307 343 346 343 329 335 306 307 315 322 317 312 310 295 271 253
333 329 321 283 271 316 311 305 302 269 305 349 111 169 284 333 344 334 348 4 38 15 275 319 76 264 245 241 324 12 20 11 350 345 346 316 308 307 318 316 294 288 271 254
347 327 278 291 314 311 291 284 32 340 10 329 184 212 275 345 48 258 11 270 323 36 284 90 317 290 232 194 242 311 358 12 14 9 358 346 333 322 306 300 302 290 273 265
323 304 287 296 293 281 69 282 320 70 236 244 210 283 291 292 308 51 351 136 30 256 331 60 291 254 188 198 240 269 300 323 340 343 341 334 327 319 311 303 294 287 279 262
322 315 287 308 298 27 119 261 304 318 196 197 252 315 261 234 326 80 51 45 235 316 42 238 232 264 218 237 268 279 285 288 300 311 316 318 312 303 299 298 298 287 276 269
305 305 307 142 295 249 190 187 191 183 190 221 326 192 326 343 41 116 75 242 23 22 360 241 244 213 222 258 290 288 287 286 294 301 307 308 303 297 292 292 292 287 285 274
266 234 244 224 252 263 259 219 213 200 181 280 215 103 2 354 67 41 60 13 274 210 232 233 206 205 259 282 292 294 294 294 294 298 300 300 297 294 291 289 286 284 279 274
235 235 261 232 299 266 235 233 230 212 196 156 143 100 43 281 145 79 217 130 229 244 219 215 209 262 289 295 296 297 298 299 302 304 304 303 302 299 298 296 289 277 269 265
232 241 234 240 268 260 256 242 205 186 168 179 125 110 223 106 15 268 196 210 221 214 208 219 264 288 298 303 302 302 304 306 309 311 314 314 313 312 314 314 313 292 283 273